Location: ??
(35.1714°N, 128.2806°E)
Time: 15:17:14
(UTC+00:00)

Cosmos 2026 Rocket - Pass Details

Date: 29 October 2020
Orbit: 938 x 1002 km, 82.9° (Epoch: 01 December)

Event Time Altitude Azimuth Distance (km) Brightness Sun altitude
Rises 19:55:07 0° 178° (S) 3,700 7.1 -23.2°
Reaches altitude 10° 19:57:38 10° 176° (S) 2,758 6.4 -22.7°
Maximum altitude 20:03:57 72° 93° (E) 1,051 4.3 -21.4°
Drops below altitude 10° 20:10:18 10° 11° (N) 2,775 6.5 -20.1°
Sets 20:12:50 0° 9° (N) 3,724 7.1 -19.6°
